Showing default

TOMORROW-S1, 60479

Orbit data source: Space-Track

TOMORROW-S1, 60479 is a payload satellite owned by Tomorrow.io (US) in SSO that was launched on Fri, 16 Aug 2024 UTC via an FALCON 9 launch vehicle from the Air Force Western Test Range (AFWTR). Payload-class satellites include a variety of spacecraft equipped with specific instruments for various scientific and technological missions. These include communications satellites like Starlink; space stations such as the ISS; scientific satellites like the Hubble; Earth observation satellites from companies like Planet Labs, Umbra, and HawkEye 360; GPS; miniature CubeSats for education and research; and military/defense satellites.

Loading next visibility...
Identifier
60479, 2024-149M
Orbit
SSO
Country
Flag of USUS
Related business
Manufacturer
Blue Canyon
Mission
Operational Commercial Weather
Bus & Motor
CUBESAT 6U, Unknown motor
Mass
12 kg wet, 12 kg dry
Launch date (UTC)
2024-08-16 (2 years ago)
Launch vehicle
FALCON 9
Launch site
Air Force Western Test Range (AFWTR)
Object type
Payload
Rocket body
Debris
Shape & HBR
Box + 2 Pan, 1.0 m
Radar Cross Section
0.138 m², Medium (>0.1 m² and < 1m²)

Expand to show TLE details & history
Last TLE update: 9 hours ago

TLE from 9 hours ago
0 TOMORROW-S1
1 60479U 24149M   26171.46590854  .00006061  00000-0  19407-3 0  9991
2 60479  97.3745 251.9280 0001876 197.8929 162.2248 15.32758998102596
Epoch: 2026-06-20T11:10Z
TLE epoch observation values (Epoch: 2026-06-20T11:10:54.497Z)
Latitude
0.00002°
Longitude
175.52079°
Altitude
471.917 km
Speed
7.629 km/s
True Right ascension
16h 47m 42s
True Declination
0° 00' 00"
Sunlit
Object was in full shadow at epoch
Visualization orbit readout
Latitude
Unknown
Longitude
Unknown
Altitude
Unknown
Speed
Unknown
Apparent Right ascension
Unknown
Apparent Declination
Unknown
Sunlit
N/A
Visualization observer readout
Local Sidereal Time
07:23:02
Azimuth
Unknown
Elevation
Unknown
Doppler factor
Unknown
Orbital elements
Apogee altitude
465.816 km
Perigee altitude
463.249 km
Semi-major axis
6,842.669 km
Eccentricity
0.00019
Inclination
97.3745°
RAAN
251.928°
Arg. of periapsis
197.8929°
True anomaly
162.23136°
Mean anomaly
162.2248°
Eccentric anomaly
162.22808°
Mean motion
3.83447 °/min
Orbital period
93.89 mins
BSTAR
0.00019407
Loading maneuver chart data...
Computing Atmospheric mass density...
Loading historical data...
Loading historical data...
Loading historical data...
Loading historical data...
Loading historical data...
Loading historical data...
Loading historical data...

Documentation

Showing up to 5 results
|